SCP
-0 -0 0 0 0 0 0 0 0 0 0 0 0 0 0 0 0 0 0 0 0 0 0 0 0 0 0 0 0 0 0 0 0 0 0 0 0 0 0 0 0 0 0
-0 0 0 0 0 0 0 0 0 0 0 0 0 0 0 0 0 0 0 0 0 0 0 0 0 0 0 0 0 0 0 0 0 0 -0 -0 -0 0 0 0 0 0 0
0 0 0 0 0 0 0 0 0 0 0 0 0 0 0 0 0 0 0 0 0 0 0 0 0 0 0 0 0 0 0 0 0 0 -0 -0 -0 0 0 0 0 0 0
0 0 0 0 0 0 0 0 0 0 0 0 0 0 0 0 0 0 0 0 0 0 0 0 0 0 0 0 0 0 0 0 0 0 -0 -0 0 0 0 0 0 0 0
0 0 0 0 0 0 0 0 0 0 0 0 0 0 0 0 0 0 0 0 0 0 0 0 0 0 0 0 0 0 0 0 0 0 -0 -0 0 0 0 0 0 0 0
0 0 0 0 0 0 0 0 0 0 0 0 0 0 0 0 0 0 0 0 0 0 0 0 0 0 0 0 0 0 0 0 0 0 -0 0 0 0 1 0 0 0 0
0 0 0 0 0 0 0 0 0 0 0 0 0 0 0 0 0 0 0 0 0 0 0 0 0 0 0 0 0 0 0 0 0 0 0 0 0 1 1 0 0 0 0
0 0 0 0 0 0 0 0 0 0 1 0 0 0 0 0 0 0 0 0 0 0 0 0 0 0 0 0 0 0 0 0 0 0 0 0 1 1 1 1 0 0 0
0 0 0 0 0 0 0 0 0 0 0 0 0 0 0 0 0 0 0 0 0 0 0 0 0 0 0 0 0 0 0 0 0 0 0 0 1 1 1 0 1 1 1
0 0 0 0 0 0 0 0 0 0 0 0 0 0 0 0 0 0 0 0 0 0 0 0 0 0 0 0 0 0 0 0 0 0 0 0 1 1 1 1 1 1 1
0 0 0 0 0 0 0 0 0 0 0 0 0 0 0 0 0 0 0 0 0 0 0 0 0 0 0 0 0 0 0 0 0 0 0 1 0 0 0 1 1 1 1
0 0 0 0 0 0 0 0 0 0 0 0 0 0 0 0 0 0 0 0 0 0 0 0 0 0 0 0 0 0 0 0 0 0 0 0 0 0 0 0 1 1 1
0 0 0 0 0 0 0 0 0 0 0 0 0 0 0 0 0 0 0 0 0 0 0 0 0 0 0 0 0 0 0 0 0 0 0 0 0 0 0 0 0 1 1
0 0 -0 0 0 0 0 0 0 0 0 0 0 0 0 0 0 0 0 0 0 0 0 0 0 0 0 0 0 0 0 0 0 0 0 1 0 0 0 0 1 1 1
0 0 0 0 0 0 0 0 0 0 0 0 0 0 0 0 0 0 0 0 0 0 0 0 0 0 0 0 0 0 0 0 0 0 0 0 1 1 0 0 0 1 1
0 0 0 0 0 0 0 0 0 0 0 0 0 0 0 0 0 0 0 0 0 0 0 0 0 0 0 0 0 0 0 0 0 0 0 0 0 0 0 0 0 0 1
0 0 -0 0 0 0 0 0 0 0 0 0 0 0 0 0 0 0 0 0 0 0 0 0 0 0 0 0 0 0 0 0 0 0 0 0 0 0 0 0 0 0 1
0 0 0 -0 0 0 0 0 0 0 0 0 0 0 0 0 0 0 0 0 0 0 0 0 0 0 0 0 0 0 0 0 0 -0 0 0 0 0 0 0 0 0 0
0 0 0 0 0 0 0 0 0 0 0 0 0 0 0 0 0 0 0 0 0 0 0 0 0 0 0 0 0 0 0 0 0 0 0 0 0 0 0 0 0 0 0
0 0 0 0 0 0 0 0 0 0 0 0 0 0 0 0 0 0 0 0 0 0 0 0 0 0 0 0 0 0 0 0 0 0 0 0 0 0 0 0 -0 -0 0
0 0 0 0 0 0 0 0 0 0 0 0 0 0 0 0 0 0 0 0 0 0 0 0 0 0 0 0 0 0 0 0 0 0 0 0 0 0 0 0 -0 -0 -0
0 0 0 0 0 0 0 0 0 0 0 0 0 0 0 0 0 0 0 0 0 0 0 0 0 0 0 0 0 0 0 0 0 0 0 0 0 0 0 0 0 0 0
0 0 0 0 0 0 0 0 0 0 0 0 0 0 0 0 0 0 0 0 0 0 0 0 0 0 0 0 0 0 0 0 0 0 0 0 0 0 0 0 0 0 0
0 0 0 0 0 0 0 0 0 0 0 0 0 0 0 0 0 0 0 0 0 0 0 0 0 0 0 0 0 0 0 0 0 0 0 0 0 0 0 0 0 0 0
0 0 0 0 0 0 0 0 0 0 0 0 0 0 0 0 0 0 0 0 0 0 0 0 0 0 0 0 0 0 0 0 0 0 0 0 0 0 0 0 0 0 0
0 0 0 0 0 0 0 0 0 0 0 0 0 0 0 0 0 0 0 0 0 0 0 0 0 0 0 0 0 0 0 0 0 0 0 0 0 0 0 0 0 0 0
Wind_Speed_500mb
11 8 9 10 10 10 11 12 13 12 12 13 13 15 17 18 18 17 16 17 17 18 18 17 15 13 13 13 14 16 15 12 12 8 6 6 5 6 5 3 4 12 15
13 6 9 9 8 8 9 10 10 10 9 10 12 15 18 21 23 23 24 24 23 23 23 24 23 20 18 16 15 13 14 13 11 12 11 11 9 10 10 8 4 9 16
12 11 8 9 8 8 8 8 8 8 8 10 12 16 21 22 24 26 27 28 29 31 31 30 29 29 27 25 23 20 17 15 14 15 16 17 25 18 17 12 11 15 15
9 8 4 12 11 9 8 8 8 8 9 11 15 20 22 23 24 26 25 26 31 35 37 38 38 36 35 33 31 28 24 21 17 17 20 21 16 31 24 22 16 17 17
9 3 20 20 19 16 12 11 12 12 13 16 19 21 23 26 28 28 27 28 27 28 31 37 41 42 42 40 38 36 35 30 22 18 21 27 28 33 23 23 21 17 16
16 25 28 26 23 18 15 15 16 16 17 18 20 22 24 25 25 25 27 29 33 33 33 33 35 38 41 41 41 41 41 40 33 26 30 28 23 15 26 27 27 22 22
14 16 21 34 25 18 16 17 19 21 21 21 22 24 26 27 26 28 31 32 34 35 35 34 33 35 37 39 42 44 45 47 41 30 33 20 29 41 41 39 32 24 24
17 18 20 27 34 32 27 20 16 16 17 19 23 27 27 24 25 27 27 29 29 28 28 29 30 32 33 37 42 44 47 48 46 35 32 37 38 41 39 43 36 27 24
18 19 24 21 32 28 21 28 19 18 16 17 20 20 19 28 28 30 37 34 31 29 28 28 27 25 24 29 31 40 47 53 54 41 40 29 30 37 33 41 39 31 28
22 22 22 21 17 15 31 28 27 24 19 18 22 18 27 26 31 31 38 40 39 38 38 38 37 36 36 36 39 40 41 46 49 45 49 52 45 53 45 44 43 36 31
24 27 26 24 20 14 12 25 26 29 30 23 21 20 19 18 25 28 37 44 35 32 28 33 32 31 31 28 30 33 44 31 33 40 49 49 60 56 47 47 48 41 35
28 26 28 24 21 16 11 13 10 13 16 21 22 25 22 23 26 27 26 37 38 42 36 33 35 31 26 23 19 30 27 30 34 37 48 48 46 59 53 45 48 46 42
28 30 29 26 23 18 15 13 11 13 16 20 29 28 25 23 25 23 23 24 27 31 28 28 26 24 23 20 18 22 27 31 33 39 32 38 49 57 58 53 52 54 46
30 30 28 26 22 21 16 13 14 16 16 20 24 30 27 25 25 26 25 26 28 29 32 30 27 29 27 23 23 22 23 24 28 34 34 38 50 53 57 59 53 54 47
31 32 29 26 23 20 18 14 15 16 18 19 21 27 28 24 26 25 28 29 31 32 31 30 29 30 28 26 25 24 25 26 26 27 33 37 34 38 44 57 61 57 64
29 30 26 23 21 17 17 17 15 15 17 18 20 25 26 26 31 26 29 31 33 32 33 32 33 30 27 26 26 27 26 25 24 26 27 36 36 34 36 43 50 65 70
25 27 25 21 20 18 16 15 14 14 16 17 19 25 27 30 32 29 29 30 33 31 32 32 32 30 28 27 27 27 26 24 23 24 27 25 30 32 35 41 44 49 46
20 25 25 18 15 17 16 17 16 16 16 18 20 23 29 29 33 28 27 29 28 28 29 30 30 31 30 28 29 27 24 25 22 22 18 19 26 22 27 30 28 45 47
15 19 22 19 16 15 19 17 19 22 17 17 19 21 28 29 31 28 27 28 29 27 28 31 31 29 29 32 33 26 22 19 21 20 25 27 25 18 18 29 32 58 71
10 16 20 20 21 18 18 18 18 16 14 16 16 21 27 28 31 31 26 29 29 27 28 38 32 31 31 29 31 30 24 10 16 20 19 18 23 13 17 21 27 29 56
6 12 19 19 22 17 15 16 14 14 16 15 17 22 26 29 31 30 27 28 30 27 32 36 35 32 31 34 32 26 11 6 10 14 13 15 22 14 14 17 15 7 6
3 8 14 16 20 14 11 16 13 13 11 16 19 21 26 29 30 28 31 28 30 27 31 36 36 31 26 30 29 27 14 4 22 18 15 16 14 11 10 12 7 3 4
6 4 7 12 15 15 17 12 12 12 13 16 18 20 23 25 26 29 31 30 35 29 32 30 31 29 24 22 25 20 17 17 34 24 12 15 16 14 10 6 8 2 2
9 4 3 6 10 13 12 9 11 12 14 17 17 20 22 24 26 29 29 33 32 29 39 34 31 25 26 23 21 19 16 21 17 20 25 22 18 19 17 8 2 4 0
14 6 5 3 5 9 6 8 10 10 11 14 16 19 22 22 24 28 26 27 30 28 38 35 28 31 26 24 21 25 20 20 16 26 30 31 25 18 15 13 14 14 7
15 8 7 3 2 5 5 7 9 11 12 11 18 18 18 20 20 31 24 25 26 28 30 30 34 30 25 25 24 22 22 23 24 22 24 26 24 20 17 18 13 5 4
Wind_Direction_500mb
79 56 55 56 54 52 51 46 44 41 37 27 16 6 354 343 330 319 311 307 307 308 309 309 311 317 327 338 346 348 348 337 319 303 291 290 284 289 292 325 194 301 254
97 65 53 49 45 41 42 42 37 27 23 13 5 353 340 330 320 311 304 298 294 291 290 294 298 301 303 304 309 317 325 324 309 295 288 277 289 298 294 272 248 265 278
90 38 21 29 24 24 21 16 10 11 354 350 345 338 337 337 333 318 306 300 294 288 285 283 284 288 293 296 296 297 300 307 301 287 287 295 258 252 292 277 272 272 281
73 91 26 359 345 351 353 344 330 332 332 334 334 343 347 345 341 334 324 313 302 293 288 283 281 279 279 283 287 290 289 290 294 290 281 278 254 242 277 273 284 289 284
58 53 348 345 333 325 324 326 323 323 323 328 336 341 346 345 342 340 336 332 328 318 301 287 282 278 275 276 280 283 284 281 278 284 285 270 252 224 268 273 283 286 283
25 15 346 351 340 312 311 320 319 316 313 319 325 333 339 340 336 331 325 320 318 315 309 294 285 281 279 274 271 272 276 278 279 284 287 275 261 276 254 269 278 277 275
16 20 354 360 8 5 333 327 324 322 319 317 321 327 327 328 327 325 323 321 314 307 302 295 292 285 279 273 268 267 268 270 272 274 275 285 269 254 254 266 269 271 273
19 14 21 353 9 8 356 341 334 325 319 316 322 326 328 332 332 333 332 331 324 318 310 305 302 294 292 281 275 273 268 267 266 270 267 276 262 271 257 263 262 267 270
22 11 9 13 0 351 359 338 342 336 332 324 325 333 338 349 340 342 333 331 325 316 311 306 305 302 299 299 292 283 277 268 262 260 259 255 268 261 260 264 257 256 259
16 13 5 1 358 348 350 345 6 4 8 10 12 14 19 1 346 340 330 325 316 310 306 302 296 293 291 294 303 304 295 276 266 262 253 251 266 258 261 260 253 248 245
19 14 8 5 8 1 342 351 17 7 26 28 17 5 15 333 337 344 329 338 353 355 345 336 331 328 330 316 305 308 312 288 270 263 262 261 253 260 254 254 250 244 238
22 16 15 8 20 22 15 20 14 10 9 17 8 5 353 350 346 5 351 353 1 359 2 3 357 7 350 320 307 306 311 294 282 272 266 250 246 258 257 252 248 241 235
21 22 19 16 25 38 22 31 20 13 13 0 359 12 358 6 359 3 1 356 358 351 353 358 356 348 341 332 318 300 295 294 282 266 268 271 260 250 259 250 250 245 235
27 27 22 25 34 30 44 31 24 11 15 5 7 9 7 5 4 1 355 356 352 348 348 348 346 343 347 339 323 313 299 298 296 289 269 269 264 261 259 249 248 244 237
30 26 24 23 29 31 32 33 17 25 9 17 8 4 9 12 1 358 354 352 347 346 342 339 336 336 339 337 332 319 306 295 295 295 299 284 276 265 262 246 240 242 235
33 27 23 24 23 27 26 26 27 17 13 13 5 7 11 12 359 357 351 350 345 349 345 341 336 335 333 329 328 327 323 311 295 293 288 303 293 282 276 259 245 241 243
25 26 29 19 23 36 32 42 24 27 20 15 11 359 11 2 355 5 349 349 347 355 352 348 347 343 334 330 327 330 330 324 313 307 302 285 295 296 280 264 248 236 228
37 25 19 27 26 20 38 29 28 23 25 20 16 2 7 359 353 7 352 352 2 356 354 353 350 348 345 339 328 328 328 334 329 318 321 301 289 281 311 274 264 242 225
33 32 25 22 29 33 12 25 17 13 20 20 12 0 1 359 359 9 355 357 14 356 355 355 354 348 345 339 334 326 320 333 336 333 332 323 303 279 302 311 292 257 260
36 31 26 28 31 38 28 20 10 7 13 13 3 1 0 1 1 4 1 1 7 353 351 353 4 350 348 337 339 327 301 296 330 342 336 335 343 308 307 313 336 269 239
17 20 24 20 28 53 35 29 22 14 3 4 356 0 2 3 1 1 3 0 1 4 353 352 355 351 351 344 341 335 320 2 343 343 348 347 346 351 347 347 327 347 255
290 17 19 20 16 41 37 25 15 7 4 4 348 355 356 4 2 5 8 357 4 5 349 353 356 354 354 353 352 338 338 320 354 329 320 332 325 350 5 335 351 53 183
256 316 2 15 17 31 63 19 23 12 357 348 355 343 355 2 6 5 5 354 15 5 353 353 353 351 359 5 12 6 354 351 335 337 324 328 329 329 347 352 334 12 197
231 228 316 6 33 351 55 22 23 17 356 353 355 340 358 356 4 9 6 359 0 8 343 355 356 8 7 7 9 3 347 316 325 328 324 315 318 313 298 285 276 288 114
212 228 238 341 10 10 22 40 32 356 354 349 354 355 351 354 357 0 5 6 360 5 350 352 7 7 3 1 356 347 349 337 334 330 326 324 313 288 268 279 269 251 228
207 213 220 234 324 6 5 354 353 346 340 1 352 358 350 347 351 335 6 7 1 4 356 359 8 8 1 360 1 358 344 339 335 331 327 329 327 326 312 299 278 267 281
Wind_Speed_850mb
11 8 9 10 10 10 11 12 13 12 12 13 13 15 17 18 18 17 16 17 17 18 18 17 15 13 13 13 14 16 15 12 12 8 6 6 5 6 5 3 4 12 15
13 6 9 9 8 8 9 10 10 10 9 10 12 15 18 21 23 23 24 24 23 23 23 24 23 20 18 16 15 13 14 13 11 12 11 11 9 10 10 8 4 9 16
12 11 8 9 8 8 8 8 8 8 8 10 12 16 21 22 24 26 27 28 29 31 31 30 29 29 27 25 23 20 17 15 14 15 16 17 25 18 17 12 11 15 15
9 8 4 12 11 9 8 8 8 8 9 11 15 20 22 23 24 26 25 26 31 35 37 38 38 36 35 33 31 28 24 21 17 17 20 21 16 31 24 22 16 17 17
9 3 20 20 19 16 12 11 12 12 13 16 19 21 23 26 28 28 27 28 27 28 31 37 41 42 42 40 38 36 35 30 22 18 21 27 28 33 23 23 21 17 16
16 25 28 26 23 18 15 15 16 16 17 18 20 22 24 25 25 25 27 29 33 33 33 33 35 38 41 41 41 41 41 40 33 26 30 28 23 15 26 27 27 22 22
14 16 21 34 25 18 16 17 19 21 21 21 22 24 26 27 26 28 31 32 34 35 35 34 33 35 37 39 42 44 45 47 41 30 33 20 29 41 41 39 32 24 24
17 18 20 27 34 32 27 20 16 16 17 19 23 27 27 24 25 27 27 29 29 28 28 29 30 32 33 37 42 44 47 48 46 35 32 37 38 41 39 43 36 27 24
18 19 24 21 32 28 21 28 19 18 16 17 20 20 19 28 28 30 37 34 31 29 28 28 27 25 24 29 31 40 47 53 54 41 40 29 30 37 33 41 39 31 28
22 22 22 21 17 15 31 28 27 24 19 18 22 18 27 26 31 31 38 40 39 38 38 38 37 36 36 36 39 40 41 46 49 45 49 52 45 53 45 44 43 36 31
24 27 26 24 20 14 12 25 26 29 30 23 21 20 19 18 25 28 37 44 35 32 28 33 32 31 31 28 30 33 44 31 33 40 49 49 60 56 47 47 48 41 35
28 26 28 24 21 16 11 13 10 13 16 21 22 25 22 23 26 27 26 37 38 42 36 33 35 31 26 23 19 30 27 30 34 37 48 48 46 59 53 45 48 46 42
28 30 29 26 23 18 15 13 11 13 16 20 29 28 25 23 25 23 23 24 27 31 28 28 26 24 23 20 18 22 27 31 33 39 32 38 49 57 58 53 52 54 46
30 30 28 26 22 21 16 13 14 16 16 20 24 30 27 25 25 26 25 26 28 29 32 30 27 29 27 23 23 22 23 24 28 34 34 38 50 53 57 59 53 54 47
31 32 29 26 23 20 18 14 15 16 18 19 21 27 28 24 26 25 28 29 31 32 31 30 29 30 28 26 25 24 25 26 26 27 33 37 34 38 44 57 61 57 64
29 30 26 23 21 17 17 17 15 15 17 18 20 25 26 26 31 26 29 31 33 32 33 32 33 30 27 26 26 27 26 25 24 26 27 36 36 34 36 43 50 65 70
25 27 25 21 20 18 16 15 14 14 16 17 19 25 27 30 32 29 29 30 33 31 32 32 32 30 28 27 27 27 26 24 23 24 27 25 30 32 35 41 44 49 46
20 25 25 18 15 17 16 17 16 16 16 18 20 23 29 29 33 28 27 29 28 28 29 30 30 31 30 28 29 27 24 25 22 22 18 19 26 22 27 30 28 45 47
15 19 22 19 16 15 19 17 19 22 17 17 19 21 28 29 31 28 27 28 29 27 28 31 31 29 29 32 33 26 22 19 21 20 25 27 25 18 18 29 32 58 71
10 16 20 20 21 18 18 18 18 16 14 16 16 21 27 28 31 31 26 29 29 27 28 38 32 31 31 29 31 30 24 10 16 20 19 18 23 13 17 21 27 29 56
6 12 19 19 22 17 15 16 14 14 16 15 17 22 26 29 31 30 27 28 30 27 32 36 35 32 31 34 32 26 11 6 10 14 13 15 22 14 14 17 15 7 6
3 8 14 16 20 14 11 16 13 13 11 16 19 21 26 29 30 28 31 28 30 27 31 36 36 31 26 30 29 27 14 4 22 18 15 16 14 11 10 12 7 3 4
6 4 7 12 15 15 17 12 12 12 13 16 18 20 23 25 26 29 31 30 35 29 32 30 31 29 24 22 25 20 17 17 34 24 12 15 16 14 10 6 8 2 2
9 4 3 6 10 13 12 9 11 12 14 17 17 20 22 24 26 29 29 33 32 29 39 34 31 25 26 23 21 19 16 21 17 20 25 22 18 19 17 8 2 4 0
14 6 5 3 5 9 6 8 10 10 11 14 16 19 22 22 24 28 26 27 30 28 38 35 28 31 26 24 21 25 20 20 16 26 30 31 25 18 15 13 14 14 7
15 8 7 3 2 5 5 7 9 11 12 11 18 18 18 20 20 31 24 25 26 28 30 30 34 30 25 25 24 22 22 23 24 22 24 26 24 20 17 18 13 5 4
Wind_Direction_850mb
79 56 55 56 54 52 51 46 44 41 37 27 16 6 354 343 330 319 311 307 307 308 309 309 311 317 327 338 346 348 348 337 319 303 291 290 284 289 292 325 194 301 254
97 65 53 49 45 41 42 42 37 27 23 13 5 353 340 330 320 311 304 298 294 291 290 294 298 301 303 304 309 317 325 324 309 295 288 277 289 298 294 272 248 265 278
90 38 21 29 24 24 21 16 10 11 354 350 345 338 337 337 333 318 306 300 294 288 285 283 284 288 293 296 296 297 300 307 301 287 287 295 258 252 292 277 272 272 281
73 91 26 359 345 351 353 344 330 332 332 334 334 343 347 345 341 334 324 313 302 293 288 283 281 279 279 283 287 290 289 290 294 290 281 278 254 242 277 273 284 289 284
58 53 348 345 333 325 324 326 323 323 323 328 336 341 346 345 342 340 336 332 328 318 301 287 282 278 275 276 280 283 284 281 278 284 285 270 252 224 268 273 283 286 283
25 15 346 351 340 312 311 320 319 316 313 319 325 333 339 340 336 331 325 320 318 315 309 294 285 281 279 274 271 272 276 278 279 284 287 275 261 276 254 269 278 277 275
16 20 354 360 8 5 333 327 324 322 319 317 321 327 327 328 327 325 323 321 314 307 302 295 292 285 279 273 268 267 268 270 272 274 275 285 269 254 254 266 269 271 273
19 14 21 353 9 8 356 341 334 325 319 316 322 326 328 332 332 333 332 331 324 318 310 305 302 294 292 281 275 273 268 267 266 270 267 276 262 271 257 263 262 267 270
22 11 9 13 0 351 359 338 342 336 332 324 325 333 338 349 340 342 333 331 325 316 311 306 305 302 299 299 292 283 277 268 262 260 259 255 268 261 260 264 257 256 259
16 13 5 1 358 348 350 345 6 4 8 10 12 14 19 1 346 340 330 325 316 310 306 302 296 293 291 294 303 304 295 276 266 262 253 251 266 258 261 260 253 248 245
19 14 8 5 8 1 342 351 17 7 26 28 17 5 15 333 337 344 329 338 353 355 345 336 331 328 330 316 305 308 312 288 270 263 262 261 253 260 254 254 250 244 238
22 16 15 8 20 22 15 20 14 10 9 17 8 5 353 350 346 5 351 353 1 359 2 3 357 7 350 320 307 306 311 294 282 272 266 250 246 258 257 252 248 241 235
21 22 19 16 25 38 22 31 20 13 13 0 359 12 358 6 359 3 1 356 358 351 353 358 356 348 341 332 318 300 295 294 282 266 268 271 260 250 259 250 250 245 235
27 27 22 25 34 30 44 31 24 11 15 5 7 9 7 5 4 1 355 356 352 348 348 348 346 343 347 339 323 313 299 298 296 289 269 269 264 261 259 249 248 244 237
30 26 24 23 29 31 32 33 17 25 9 17 8 4 9 12 1 358 354 352 347 346 342 339 336 336 339 337 332 319 306 295 295 295 299 284 276 265 262 246 240 242 235
33 27 23 24 23 27 26 26 27 17 13 13 5 7 11 12 359 357 351 350 345 349 345 341 336 335 333 329 328 327 323 311 295 293 288 303 293 282 276 259 245 241 243
25 26 29 19 23 36 32 42 24 27 20 15 11 359 11 2 355 5 349 349 347 355 352 348 347 343 334 330 327 330 330 324 313 307 302 285 295 296 280 264 248 236 228
37 25 19 27 26 20 38 29 28 23 25 20 16 2 7 359 353 7 352 352 2 356 354 353 350 348 345 339 328 328 328 334 329 318 321 301 289 281 311 274 264 242 225
33 32 25 22 29 33 12 25 17 13 20 20 12 0 1 359 359 9 355 357 14 356 355 355 354 348 345 339 334 326 320 333 336 333 332 323 303 279 302 311 292 257 260
36 31 26 28 31 38 28 20 10 7 13 13 3 1 0 1 1 4 1 1 7 353 351 353 4 350 348 337 339 327 301 296 330 342 336 335 343 308 307 313 336 269 239
17 20 24 20 28 53 35 29 22 14 3 4 356 0 2 3 1 1 3 0 1 4 353 352 355 351 351 344 341 335 320 2 343 343 348 347 346 351 347 347 327 347 255
290 17 19 20 16 41 37 25 15 7 4 4 348 355 356 4 2 5 8 357 4 5 349 353 356 354 354 353 352 338 338 320 354 329 320 332 325 350 5 335 351 53 183
256 316 2 15 17 31 63 19 23 12 357 348 355 343 355 2 6 5 5 354 15 5 353 353 353 351 359 5 12 6 354 351 335 337 324 328 329 329 347 352 334 12 197
231 228 316 6 33 351 55 22 23 17 356 353 355 340 358 356 4 9 6 359 0 8 343 355 356 8 7 7 9 3 347 316 325 328 324 315 318 313 298 285 276 288 114
212 228 238 341 10 10 22 40 32 356 354 349 354 355 351 354 357 0 5 6 360 5 350 352 7 7 3 1 356 347 349 337 334 330 326 324 313 288 268 279 269 251 228
207 213 220 234 324 6 5 354 353 346 340 1 352 358 350 347 351 335 6 7 1 4 356 359 8 8 1 360 1 358 344 339 335 331 327 329 327 326 312 299 278 267 281